This is the latest recevied weather packets stored in our database for station/object KG4LKY-5. If no packets are shown the sender has not sent any weather packets the latest 10 day(s).
| Time | Temp. | Humidity | Pressure | Rain* | Wind** | Luminosity | Snow |
|---|---|---|---|---|---|---|---|
| 1777867788 | 5.56° C | 100% | 1017.4 hPa | 0 mm | - | - | - |
| 1777867487 | 6.11° C | 100% | 1017.5 hPa | 0 mm | - | - | - |
| 1777867187 | 6.11° C | 100% | 1017.4 hPa | 0 mm | - | - | - |
| 1777866587 | 6.67° C | 100% | 1017.3 hPa | 0 mm | - | - | - |
| 1777866286 | 6.67° C | 100% | 1017.2 hPa | 0 mm | - | - | - |
| 1777865986 | 6.67° C | 100% | 1017.1 hPa | 0 mm | - | - | - |
| 1777865686 | 6.11° C | 100% | 1017 hPa | 0 mm | - | - | - |
| 1777865386 | 6.67° C | 100% | 1016.9 hPa | 0 mm | - | - | - |
| 1777864785 | 5.56° C | 100% | 1016.8 hPa | 0 mm | - | - | - |
| 1777864485 | 6.11° C | 100% | 1016.8 hPa | 0 mm | - | - | - |
| 1777864184 | 6.11° C | 100% | 1016.8 hPa | 0 mm | - | - | - |
| 1777863884 | 7.22° C | 100% | 1016.9 hPa | 0 mm | - | - | - |
| 1777863584 | 6.11° C | 100% | 1016.9 hPa | 0 mm | - | - | - |
| 1777862983 | 6.67° C | 100% | 1016.9 hPa | 0 mm | - | - | - |
| 1777862683 | 7.22° C | 100% | 1016.9 hPa | 0 mm | - | - | - |
| 1777862383 | 7.22° C | 97% | 1016.8 hPa | 0 mm | - | - | - |
| 1777861782 | 7.78° C | 96% | 1016.7 hPa | 0 mm | - | - | - |
| 1777861482 | 7.22° C | 93% | 1016.7 hPa | 0 mm | - | - | - |
| 1777861181 | 7.78° C | 91% | 1016.7 hPa | 0 mm | - | - | - |
| 1777860580 | 8.33° C | 88% | 1016.7 hPa | 0 mm | - | - | - |
| 1777860280 | 8.89° C | 85% | 1016.5 hPa | 0 mm | - | - | - |
| 1777859980 | 8.89° C | 80% | 1016.4 hPa | 0 mm | - | - | - |
| 1777859679 | 8.89° C | 85% | 1016.2 hPa | 0 mm | - | - | - |
| 1777859379 | 9.44° C | 81% | 1016.2 hPa | 0 mm | - | - | - |
| 1777859079 | 10° C | 76% | 1016.1 hPa | 0 mm | - | - | - |
* Rain since midnight (hover to see other rain measurements)
** Current wind speed in m/s (hover to see current wind gust speed)